Ever Delight — 3FCB8 — position and weather

sailwx.info

Track history (hours):
 
Tides and Currents Weather Stations Pressure Air Temp Water Temp Dewpoint Dewpoint Depression Visibility Wind Speed Wind Dir Waves Ship Positions

Ever Delight

Last reported at 2014-Jul-26 23:04 UTC. Time now 2014-Jul-31 05:21 UTC.
Position N 35°57' W 073°58'.

Type: Cargo ship. MMSI: 351936000.

Date/timePositionNaut miles runAvg speedWind from/ knotsBaromVisibWave heightAir tempDewpointWater temp
2014-Jul-26 23:04N 35°57' W 073°58'815.4
2014-Jul-26 22:33N 36°05' W 073°57'7418.0
2014-Jul-26 18:27N 37°18' W 073°57'1617.8
2014-Jul-26 17:34N 37°34' W 073°57'1616.1
2014-Jul-26 16:33N 37°51' W 073°58'2015.1
2014-Jul-26 15:12N 38°11' W 073°57'1015.3
2014-Jul-26 14:33N 38°21' W 073°56'1716.0
2014-Jul-26 13:28N 38°38' W 073°56'1618.0
2014-Jul-26 12:33N 38°55' W 073°56'1818.1
2014-Jul-26 11:33N 39°12' W 073°55'1817.8
2014-Jul-26 10:34N 39°30' W 073°53'1817.9
2014-Jul-26 09:33N 39°48' W 073°52'1817.8
2014-Jul-26 08:33N 40°06' W 073°50'1716.9
2014-Jul-26 07:33N 40°23' W 073°49'1313.2
2014-Jul-26 06:34N 40°32' W 074°01'9 8.7
2014-Jul-26 05:33N 40°39' W 074°09'2 2.4
2014-Jul-26 04:34N 40°41' W 074°09'0 0.0
2014-Jul-26 03:29N 40°41' W 074°09'0 0.0
2014-Jul-26 02:31N 40°41' W 074°09'0 0.0
2014-Jul-26 01:33N 40°41' W 074°09'0 0.0
2014-Jul-26 00:34N 40°41' W 074°09'0 0.0
2014-Jul-25 23:33N 40°41' W 074°09'0 0.0
2014-Jul-25 22:29N 40°41' W 074°09'0 0.0
2014-Jul-25 21:34N 40°41' W 074°09'0 0.0
2014-Jul-25 20:33N 40°41' W 074°09'0 0.0
2014-Jul-25 19:30N 40°41' W 074°09'0 0.0
2014-Jul-25 18:33N 40°41' W 074°09'0 0.0
2014-Jul-25 17:33N 40°41' W 074°09'0 0.0
2014-Jul-25 16:33N 40°41' W 074°09'0 0.0
2014-Jul-25 15:28N 40°41' W 074°09'0 0.1
2014-Jul-25 14:33N 40°41' W 074°09'3 2.7
2014-Jul-25 13:34N 40°39' W 074°06'8 8.3
2014-Jul-25 12:33N 40°32' W 074°01'1211.9
2014-Jul-25 11:33N 40°27' W 073°47'9 8.7
2014-Jul-25 10:28N 40°18' W 073°52'0 0.0
2014-Jul-25 09:31N 40°18' W 073°52'0 0.0
2014-Jul-25 08:25N 40°18' W 073°52'0 0.0
2014-Jul-25 07:25N 40°18' W 073°52'0 0.0
2014-Jul-25 06:31N 40°18' W 073°52'0 0.0
2014-Jul-25 05:22N 40°18' W 073°52'0 0.2
2014-Jul-25 04:27N 40°18' W 073°51'0 0.1
2014-Jul-25 01:33N 40°18' W 073°52'0 0.0
2014-Jul-25 00:18N 40°18' W 073°52'0 0.0
2014-Jul-24 22:21N 40°18' W 073°52'0 0.0
2014-Jul-24 21:24N 40°18' W 073°52'0 0.0
2014-Jul-24 20:28N 40°18' W 073°52'0 0.1
2014-Jul-24 19:19N 40°18' W 073°52'0 0.1
2014-Jul-24 17:23N 40°18' W 073°52'0 0.0
2014-Jul-24 16:31N 40°18' W 073°52'0 0.0
2014-Jul-24 15:26N 40°18' W 073°52'0 0.1
2014-Jul-24 14:17N 40°18' W 073°51'0 0.0
2014-Jul-24 09:05N 40°18' W 073°51'0 0.2
2014-Jul-24 08:32N 40°18' W 073°51'0 0.1
2014-Jul-24 07:26N 40°18' W 073°51'0 0.0
2014-Jul-24 06:20N 40°18' W 073°51'0 0.0
2014-Jul-24 05:33N 40°18' W 073°51'0 0.1
2014-Jul-24 04:32N 40°18' W 073°51'0 0.1
2014-Jul-24 02:14N 40°18' W 073°51'0 0.1
2014-Jul-24 01:33N 40°18' W 073°51'1211.9
2014-Jul-24 00:33N 40°08' W 073°45'1515.2
2014-Jul-23 23:34N 39°52' W 073°44'1515.2
2014-Jul-23 22:33N 39°37' W 073°46'1515.5
2014-Jul-23 21:34N 39°23' W 073°53'1515.4
2014-Jul-23 20:34N 39°08' W 073°60'1515.5
2014-Jul-23 19:34N 38°54' W 074°08'1515.5
2014-Jul-23 18:34N 38°40' W 074°16'1515.4
2014-Jul-23 17:33N 38°26' W 074°24'5216.8
2014-Jul-23 14:28N 37°40' W 074°54'4020.7
2014-Jul-23 12:33N 37°08' W 075°23'2120.0
2014-Jul-23 11:29N 36°51' W 075°39'1415.1
2014-Jul-23 10:33N 36°54' W 075°56'1313.4
2014-Jul-23 09:33N 36°60' W 076°11'10 7.6
2014-Jul-23 08:17N 36°53' W 076°20'1 0.6
2014-Jul-23 07:07N 36°53' W 076°21'0 0.0
2014-Jul-23 06:33N 36°53' W 076°21'0 0.0
2014-Jul-23 05:32N 36°53' W 076°21'0 0.0
2014-Jul-23 04:33N 36°53' W 076°21'0 0.0
2014-Jul-23 03:32N 36°53' W 076°21'0 0.0
2014-Jul-23 02:33N 36°53' W 076°21'0 0.0
2014-Jul-23 01:33N 36°53' W 076°21'0 0.0
2014-Jul-23 00:33N 36°53' W 076°21'0 0.0
2014-Jul-22 23:30N 36°53' W 076°21'0 0.0
2014-Jul-22 22:30N 36°53' W 076°21'0 0.0
2014-Jul-22 21:17N 36°53' W 076°21'3 3.7
2014-Jul-22 20:31N 36°55' W 076°20'9 9.3
2014-Jul-22 19:32N 36°59' W 076°10'6 6.0
2014-Jul-22 18:33N 37°01' W 076°03'1413.8
2014-Jul-22 17:30N 37°15' W 076°08'4314.4
2014-Jul-22 14:29N 37°59' W 076°11'1515.5
2014-Jul-22 13:29N 38°14' W 076°15'1918.0
2014-Jul-22 12:24N 38°32' W 076°25'1618.3
2014-Jul-22 11:33N 38°47' W 076°25'1616.1
2014-Jul-22 10:33N 39°03' W 076°23'1212.4
2014-Jul-22 09:34N 39°14' W 076°32'2 1.9
2014-Jul-22 08:33N 39°15' W 076°33'0 0.0
2014-Jul-22 07:31N 39°15' W 076°33'0 0.0
2014-Jul-22 06:31N 39°15' W 076°33'0 0.0
2014-Jul-22 05:31N 39°15' W 076°33'0 0.0
2014-Jul-22 04:31N 39°15' W 076°33'0 0.0
2014-Jul-22 03:31N 39°15' W 076°33'0 0.0
2014-Jul-22 02:31N 39°15' W 076°33'0 0.0
2014-Jul-22 01:31N 39°15' W 076°33'0 0.0
2014-Jul-22 00:31N 39°15' W 076°33'0 0.0
2014-Jul-21 23:31N 39°15' W 076°33'0 0.0
2014-Jul-21 22:31N 39°15' W 076°33'0 0.0
2014-Jul-21 21:31N 39°15' W 076°33'0 0.0
2014-Jul-21 20:31N 39°15' W 076°33'0 0.0
2014-Jul-21 20:16N 39°15' W 076°33'0 0.0
2014-Jul-21 19:31N 39°15' W 076°33'0 0.0
2014-Jul-21 18:33N 39°15' W 076°33'0 0.0
2014-Jul-21 17:33N 39°15' W 076°33'0 0.0
2014-Jul-21 16:33N 39°15' W 076°33'0 0.0
2014-Jul-21 15:33N 39°15' W 076°33'0 0.0
2014-Jul-21 14:33N 39°15' W 076°33'0 0.0
2014-Jul-21 13:33N 39°15' W 076°33'0 0.0
2014-Jul-21 12:33N 39°15' W 076°33'0 0.0
2014-Jul-21 11:33N 39°15' W 076°33'0 0.0
2014-Jul-21 10:33N 39°15' W 076°33'0 0.0
2014-Jul-21 09:33N 39°15' W 076°33'0 0.0
2014-Jul-21 08:33N 39°15' W 076°33'0 0.0
2014-Jul-21 07:33N 39°15' W 076°33'0 0.0
2014-Jul-21 06:33N 39°15' W 076°33'0 0.0
2014-Jul-21 05:33N 39°15' W 076°33'0 0.0
2014-Jul-21 04:33N 39°15' W 076°33'0 0.0
2014-Jul-21 03:33N 39°15' W 076°33'0 0.0
2014-Jul-21 02:33N 39°15' W 076°33'0 0.0
2014-Jul-21 01:33N 39°15' W 076°33'0 0.0
2014-Jul-21 00:33N 39°15' W 076°33'0 0.0
2014-Jul-20 23:33N 39°15' W 076°33'0 0.2
2014-Jul-20 22:33N 39°15' W 076°33'7 7.0
2014-Jul-20 21:33N 39°11' W 076°26'1312.7
2014-Jul-20 20:33N 38°58' W 076°23'10617.6
2014-Jul-20 14:32N 37°13' W 076°09'1313.1
2014-Jul-20 13:31N 37°01' W 076°02'1211.0
2014-Jul-20 12:28N 36°53' W 075°52'  
Track history (hours):
 
Tides and Currents Weather Stations Pressure Air Temp Water Temp Dewpoint Dewpoint Depression Visibility Wind Speed Wind Dir Waves Ship Positions

Ever Delight

Last reported at 2014-Jul-26 23:04 UTC. Time now 2014-Jul-31 05:21 UTC.
Position N 35°57' W 073°58'.

Type: Cargo ship. MMSI: 351936000.

Date/timePositionNaut miles runAvg speedWind from/ knotsBaromVisibWave heightAir tempDewpointWater temp
2014-Jul-26 23:04N 35°57' W 073°58'815.4
2014-Jul-26 22:33N 36°05' W 073°57'7418.0
2014-Jul-26 18:27N 37°18' W 073°57'1617.8
2014-Jul-26 17:34N 37°34' W 073°57'1616.1
2014-Jul-26 16:33N 37°51' W 073°58'2015.1
2014-Jul-26 15:12N 38°11' W 073°57'1015.3
2014-Jul-26 14:33N 38°21' W 073°56'1716.0
2014-Jul-26 13:28N 38°38' W 073°56'1618.0
2014-Jul-26 12:33N 38°55' W 073°56'1818.1
2014-Jul-26 11:33N 39°12' W 073°55'1817.8
2014-Jul-26 10:34N 39°30' W 073°53'1817.9
2014-Jul-26 09:33N 39°48' W 073°52'1817.8
2014-Jul-26 08:33N 40°06' W 073°50'1716.9
2014-Jul-26 07:33N 40°23' W 073°49'1313.2
2014-Jul-26 06:34N 40°32' W 074°01'9 8.7
2014-Jul-26 05:33N 40°39' W 074°09'2 2.4
2014-Jul-26 04:34N 40°41' W 074°09'0 0.0
2014-Jul-26 03:29N 40°41' W 074°09'0 0.0
2014-Jul-26 02:31N 40°41' W 074°09'0 0.0
2014-Jul-26 01:33N 40°41' W 074°09'0 0.0
2014-Jul-26 00:34N 40°41' W 074°09'0 0.0
2014-Jul-25 23:33N 40°41' W 074°09'0 0.0
2014-Jul-25 22:29N 40°41' W 074°09'0 0.0
2014-Jul-25 21:34N 40°41' W 074°09'0 0.0
2014-Jul-25 20:33N 40°41' W 074°09'0 0.0
2014-Jul-25 19:30N 40°41' W 074°09'0 0.0
2014-Jul-25 18:33N 40°41' W 074°09'0 0.0
2014-Jul-25 17:33N 40°41' W 074°09'0 0.0
2014-Jul-25 16:33N 40°41' W 074°09'0 0.0
2014-Jul-25 15:28N 40°41' W 074°09'0 0.1
2014-Jul-25 14:33N 40°41' W 074°09'3 2.7
2014-Jul-25 13:34N 40°39' W 074°06'8 8.3
2014-Jul-25 12:33N 40°32' W 074°01'1211.9
2014-Jul-25 11:33N 40°27' W 073°47'9 8.7
2014-Jul-25 10:28N 40°18' W 073°52'0 0.0
2014-Jul-25 09:31N 40°18' W 073°52'0 0.0
2014-Jul-25 08:25N 40°18' W 073°52'0 0.0
2014-Jul-25 07:25N 40°18' W 073°52'0 0.0
2014-Jul-25 06:31N 40°18' W 073°52'0 0.0
2014-Jul-25 05:22N 40°18' W 073°52'0 0.2
2014-Jul-25 04:27N 40°18' W 073°51'0 0.1
2014-Jul-25 01:33N 40°18' W 073°52'0 0.0
2014-Jul-25 00:18N 40°18' W 073°52'0 0.0
2014-Jul-24 22:21N 40°18' W 073°52'0 0.0
2014-Jul-24 21:24N 40°18' W 073°52'0 0.0
2014-Jul-24 20:28N 40°18' W 073°52'0 0.1
2014-Jul-24 19:19N 40°18' W 073°52'0 0.1
2014-Jul-24 17:23N 40°18' W 073°52'0 0.0
2014-Jul-24 16:31N 40°18' W 073°52'0 0.0
2014-Jul-24 15:26N 40°18' W 073°52'0 0.1
2014-Jul-24 14:17N 40°18' W 073°51'0 0.0
2014-Jul-24 09:05N 40°18' W 073°51'0 0.2
2014-Jul-24 08:32N 40°18' W 073°51'0 0.1
2014-Jul-24 07:26N 40°18' W 073°51'0 0.0
2014-Jul-24 06:20N 40°18' W 073°51'0 0.0
2014-Jul-24 05:33N 40°18' W 073°51'0 0.1
2014-Jul-24 04:32N 40°18' W 073°51'0 0.1
2014-Jul-24 02:14N 40°18' W 073°51'0 0.1
2014-Jul-24 01:33N 40°18' W 073°51'1211.9
2014-Jul-24 00:33N 40°08' W 073°45'1515.2
2014-Jul-23 23:34N 39°52' W 073°44'1515.2
2014-Jul-23 22:33N 39°37' W 073°46'1515.5
2014-Jul-23 21:34N 39°23' W 073°53'1515.4
2014-Jul-23 20:34N 39°08' W 073°60'1515.5
2014-Jul-23 19:34N 38°54' W 074°08'1515.5
2014-Jul-23 18:34N 38°40' W 074°16'1515.4
2014-Jul-23 17:33N 38°26' W 074°24'5216.8
2014-Jul-23 14:28N 37°40' W 074°54'4020.7
2014-Jul-23 12:33N 37°08' W 075°23'2120.0
2014-Jul-23 11:29N 36°51' W 075°39'1415.1
2014-Jul-23 10:33N 36°54' W 075°56'1313.4
2014-Jul-23 09:33N 36°60' W 076°11'10 7.6
2014-Jul-23 08:17N 36°53' W 076°20'1 0.6
2014-Jul-23 07:07N 36°53' W 076°21'0 0.0
2014-Jul-23 06:33N 36°53' W 076°21'0 0.0
2014-Jul-23 05:32N 36°53' W 076°21'0 0.0
2014-Jul-23 04:33N 36°53' W 076°21'0 0.0
2014-Jul-23 03:32N 36°53' W 076°21'0 0.0
2014-Jul-23 02:33N 36°53' W 076°21'0 0.0
2014-Jul-23 01:33N 36°53' W 076°21'0 0.0
2014-Jul-23 00:33N 36°53' W 076°21'0 0.0
2014-Jul-22 23:30N 36°53' W 076°21'0 0.0
2014-Jul-22 22:30N 36°53' W 076°21'0 0.0
2014-Jul-22 21:17N 36°53' W 076°21'3 3.7
2014-Jul-22 20:31N 36°55' W 076°20'9 9.3
2014-Jul-22 19:32N 36°59' W 076°10'6 6.0
2014-Jul-22 18:33N 37°01' W 076°03'1413.8
2014-Jul-22 17:30N 37°15' W 076°08'4314.4
2014-Jul-22 14:29N 37°59' W 076°11'1515.5
2014-Jul-22 13:29N 38°14' W 076°15'1918.0
2014-Jul-22 12:24N 38°32' W 076°25'1618.3
2014-Jul-22 11:33N 38°47' W 076°25'1616.1
2014-Jul-22 10:33N 39°03' W 076°23'1212.4
2014-Jul-22 09:34N 39°14' W 076°32'2 1.9
2014-Jul-22 08:33N 39°15' W 076°33'0 0.0
2014-Jul-22 07:31N 39°15' W 076°33'0 0.0
2014-Jul-22 06:31N 39°15' W 076°33'0 0.0
2014-Jul-22 05:31N 39°15' W 076°33'0 0.0
2014-Jul-22 04:31N 39°15' W 076°33'0 0.0
2014-Jul-22 03:31N 39°15' W 076°33'0 0.0
2014-Jul-22 02:31N 39°15' W 076°33'0 0.0
2014-Jul-22 01:31N 39°15' W 076°33'0 0.0
2014-Jul-22 00:31N 39°15' W 076°33'0 0.0
2014-Jul-21 23:31N 39°15' W 076°33'0 0.0
2014-Jul-21 22:31N 39°15' W 076°33'0 0.0
2014-Jul-21 21:31N 39°15' W 076°33'0 0.0
2014-Jul-21 20:31N 39°15' W 076°33'0 0.0
2014-Jul-21 20:16N 39°15' W 076°33'0 0.0
2014-Jul-21 19:31N 39°15' W 076°33'0 0.0
2014-Jul-21 18:33N 39°15' W 076°33'0 0.0
2014-Jul-21 17:33N 39°15' W 076°33'0 0.0
2014-Jul-21 16:33N 39°15' W 076°33'0 0.0
2014-Jul-21 15:33N 39°15' W 076°33'0 0.0
2014-Jul-21 14:33N 39°15' W 076°33'0 0.0
2014-Jul-21 13:33N 39°15' W 076°33'0 0.0
2014-Jul-21 12:33N 39°15' W 076°33'0 0.0
2014-Jul-21 11:33N 39°15' W 076°33'0 0.0
2014-Jul-21 10:33N 39°15' W 076°33'0 0.0
2014-Jul-21 09:33N 39°15' W 076°33'0 0.0
2014-Jul-21 08:33N 39°15' W 076°33'0 0.0
2014-Jul-21 07:33N 39°15' W 076°33'0 0.0
2014-Jul-21 06:33N 39°15' W 076°33'0 0.0
2014-Jul-21 05:33N 39°15' W 076°33'0 0.0
2014-Jul-21 04:33N 39°15' W 076°33'0 0.0
2014-Jul-21 03:33N 39°15' W 076°33'0 0.0
2014-Jul-21 02:33N 39°15' W 076°33'0 0.0
2014-Jul-21 01:33N 39°15' W 076°33'0 0.0
2014-Jul-21 00:33N 39°15' W 076°33'0 0.0
2014-Jul-20 23:33N 39°15' W 076°33'0 0.2
2014-Jul-20 22:33N 39°15' W 076°33'7 7.0
2014-Jul-20 21:33N 39°11' W 076°26'1312.7
2014-Jul-20 20:33N 38°58' W 076°23'10617.6
2014-Jul-20 14:32N 37°13' W 076°09'1313.1
2014-Jul-20 13:31N 37°01' W 076°02'1211.0
2014-Jul-20 12:28N 36°53' W 075°52'  

Dump ship's entire track history